Time,TemperatureF,DewpointF,PressureIn,WindDirection,WindDirectionDegrees,WindSpeedMPH,WindSpeedGustMPH,Humidity,HourlyPrecipIn,Conditions,Clouds,dailyrainin,SoftwareType,DateUTC
2013-08-02 00:10:00,63.7,62.0,30.01,NW,307,0.0,-999.0,93,-99.99,,,0.00,weatherlink.com 1.10,2013-08-02 04:10:00,
2013-08-02 00:25:00,63.4,61.0,30.02,NW,307,0.0,-999.0,93,-99.99,,,0.00,weatherlink.com 1.10,2013-08-02 04:25:00,
2013-08-02 00:40:00,63.4,62.0,30.02,NW,307,0.0,-999.0,94,-99.99,,,0.00,weatherlink.com 1.10,2013-08-02 04:40:00,
2013-08-02 00:56:00,63.4,62.0,30.02,NW,307,0.0,-999.0,94,-99.99,,,0.00,weatherlink.com 1.10,2013-08-02 04:56:00,
2013-08-02 01:10:00,63.4,62.0,30.02,NW,307,0.0,-999.0,94,-99.99,,,0.00,weatherlink.com 1.10,2013-08-02 05:10:00,
2013-08-02 01:25:00,62.9,61.0,30.02,NW,307,0.0,-999.0,94,-99.99,,,0.00,weatherlink.com 1.10,2013-08-02 05:25:00,
2013-08-02 01:40:00,62.6,61.0,30.02,NW,307,0.0,-999.0,94,-99.99,,,0.00,weatherlink.com 1.10,2013-08-02 05:40:00,
2013-08-02 01:56:00,62.5,61.0,30.02,NW,307,0.0,-999.0,94,-99.99,,,0.00,weatherlink.com 1.10,2013-08-02 05:56:00,
2013-08-02 02:10:00,61.8,60.0,30.02,NW,307,0.0,-999.0,94,-99.99,,,0.00,weatherlink.com 1.10,2013-08-02 06:10:00,
2013-08-02 02:25:00,61.4,60.0,30.01,NW,307,0.0,-999.0,94,-99.99,,,0.00,weatherlink.com 1.10,2013-08-02 06:25:00,
2013-08-02 02:40:00,61.5,60.0,30.01,NW,307,0.0,-999.0,95,-99.99,,,0.00,weatherlink.com 1.10,2013-08-02 06:40:00,
2013-08-02 02:56:00,61.4,60.0,30.01,NW,307,0.0,-999.0,95,-99.99,,,0.00,weatherlink.com 1.10,2013-08-02 06:56:00,
2013-08-02 03:10:00,60.7,59.0,30.01,NW,307,0.0,-999.0,94,-99.99,,,0.00,weatherlink.com 1.10,2013-08-02 07:10:00,
2013-08-02 03:25:00,60.7,59.0,30.02,NW,307,0.0,-999.0,94,-99.99,,,0.00,weatherlink.com 1.10,2013-08-02 07:25:00,
2013-08-02 03:40:00,60.6,59.0,30.02,NW,307,0.0,-999.0,95,-99.99,,,0.00,weatherlink.com 1.10,2013-08-02 07:40:00,
2013-08-02 04:10:00,60.3,59.0,30.01,NW,307,0.0,-999.0,95,-99.99,,,0.00,weatherlink.com 1.10,2013-08-02 08:10:00,
2013-08-02 04:25:00,60.3,59.0,30.02,NW,307,0.0,-999.0,95,-99.99,,,0.00,weatherlink.com 1.10,2013-08-02 08:25:00,
2013-08-02 04:40:00,60.3,59.0,30.02,NW,307,0.0,-999.0,95,-99.99,,,0.00,weatherlink.com 1.10,2013-08-02 08:40:00,
2013-08-02 04:56:00,60.3,59.0,30.01,NW,307,0.0,-999.0,95,-99.99,,,0.00,weatherlink.com 1.10,2013-08-02 08:56:00,
2013-08-02 05:10:00,60.0,59.0,30.02,NW,307,0.0,-999.0,95,-99.99,,,0.00,weatherlink.com 1.10,2013-08-02 09:10:00,
2013-08-02 05:25:00,59.9,59.0,30.02,NW,307,0.0,-999.0,95,-99.99,,,0.00,weatherlink.com 1.10,2013-08-02 09:25:00,
2013-08-02 05:40:00,59.8,58.0,30.02,NW,307,0.0,-999.0,95,-99.99,,,0.00,weatherlink.com 1.10,2013-08-02 09:40:00,
2013-08-02 05:56:00,59.8,58.0,30.02,NW,307,0.0,-999.0,95,-99.99,,,0.00,weatherlink.com 1.10,2013-08-02 09:56:00,
2013-08-02 06:10:00,59.2,58.0,30.04,NW,307,0.0,-999.0,95,-99.99,,,0.00,weatherlink.com 1.10,2013-08-02 10:10:00,
2013-08-02 06:25:00,58.8,57.0,30.04,NW,307,0.0,-999.0,95,-99.99,,,0.00,weatherlink.com 1.10,2013-08-02 10:25:00,
2013-08-02 06:40:00,58.6,57.0,30.04,NW,307,0.0,-999.0,95,-99.99,,,0.00,weatherlink.com 1.10,2013-08-02 10:40:00,
2013-08-02 06:56:00,58.5,57.0,30.05,NW,307,0.0,-999.0,95,-99.99,,,0.00,weatherlink.com 1.10,2013-08-02 10:56:00,
2013-08-02 07:10:00,58.7,57.0,30.04,NW,307,0.0,-999.0,95,-99.99,,,0.00,weatherlink.com 1.10,2013-08-02 11:10:00,
2013-08-02 07:25:00,59.6,59.0,30.04,NW,307,0.0,-999.0,96,-99.99,,,0.00,weatherlink.com 1.10,2013-08-02 11:25:00,
2013-08-02 07:40:00,60.8,60.0,30.05,NW,307,0.0,-999.0,96,-99.99,,,0.00,weatherlink.com 1.10,2013-08-02 11:40:00,
2013-08-02 07:56:00,61.1,60.0,30.05,NW,307,0.0,-999.0,96,-99.99,,,0.00,weatherlink.com 1.10,2013-08-02 11:56:00,
2013-08-02 08:10:00,62.8,62.0,30.05,WNW,287,0.0,-999.0,96,-99.99,,,0.00,weatherlink.com 1.10,2013-08-02 12:10:00,
2013-08-02 08:25:00,63.4,62.0,30.05,North,355,0.0,-999.0,96,-99.99,,,0.00,weatherlink.com 1.10,2013-08-02 12:25:00,
2013-08-02 08:40:00,64.6,64.0,30.05,WSW,254,0.0,-999.0,96,-99.99,,,0.00,weatherlink.com 1.10,2013-08-02 12:40:00,
2013-08-02 08:56:00,64.9,64.0,30.05,WSW,251,0.0,-999.0,96,-99.99,,,0.00,weatherlink.com 1.10,2013-08-02 12:56:00,
2013-08-02 09:10:00,68.3,66.0,30.04,SE,143,2.0,-999.0,93,-99.99,,,0.00,weatherlink.com 1.10,2013-08-02 13:10:00,
2013-08-02 09:25:00,70.2,66.0,30.04,ESE,123,0.0,-999.0,86,-99.99,,,0.00,weatherlink.com 1.10,2013-08-02 13:25:00,
2013-08-02 09:41:00,72.0,66.0,30.04,SW,235,4.0,-999.0,81,-99.99,,,0.00,weatherlink.com 1.10,2013-08-02 13:41:00,
2013-08-02 09:57:00,72.1,65.0,30.04,SW,228,2.0,-999.0,79,-99.99,,,0.00,weatherlink.com 1.10,2013-08-02 13:57:00,
2013-08-02 10:11:00,73.6,66.0,30.04,WSW,249,0.0,-999.0,78,-99.99,,,0.00,weatherlink.com 1.10,2013-08-02 14:11:00,
2013-08-02 10:26:00,74.9,68.0,30.06,WSW,252,0.0,-999.0,78,-99.99,,,0.00,weatherlink.com 1.10,2013-08-02 14:26:00,
2013-08-02 10:41:00,76.2,66.0,30.05,West,261,2.0,-999.0,71,-99.99,,,0.00,weatherlink.com 1.10,2013-08-02 14:41:00,
2013-08-02 10:57:00,76.4,66.0,30.06,West,261,2.0,-999.0,70,-99.99,,,0.00,weatherlink.com 1.10,2013-08-02 14:57:00,
2013-08-02 11:11:00,77.6,65.0,30.06,WSW,242,6.0,-999.0,66,-99.99,,,0.00,weatherlink.com 1.10,2013-08-02 15:11:00,
2013-08-02 11:26:00,78.5,65.0,30.06,SW,218,3.0,-999.0,63,-99.99,,,0.00,weatherlink.com 1.10,2013-08-02 15:26:00,
2013-08-02 11:41:00,79.3,65.0,30.06,SW,217,3.0,-999.0,61,-99.99,,,0.00,weatherlink.com 1.10,2013-08-02 15:41:00,
2013-08-02 11:57:00,79.3,64.0,30.06,SW,217,3.0,-999.0,60,-99.99,,,0.00,weatherlink.com 1.10,2013-08-02 15:57:00,
2013-08-02 12:11:00,79.4,61.0,30.06,WSW,250,5.0,-999.0,54,-99.99,,,0.00,weatherlink.com 1.10,2013-08-02 16:11:00,
2013-08-02 12:26:00,79.6,61.0,30.05,WSW,253,7.0,-999.0,53,-99.99,,,0.00,weatherlink.com 1.10,2013-08-02 16:26:00,
2013-08-02 12:41:00,80.3,64.0,30.05,WNW,287,3.0,-999.0,58,-99.99,,,0.00,weatherlink.com 1.10,2013-08-02 16:41:00,
2013-08-02 12:57:00,80.4,63.0,30.05,WNW,294,3.0,-999.0,55,-99.99,,,0.00,weatherlink.com 1.10,2013-08-02 16:57:00,
2013-08-02 13:26:00,80.5,62.0,30.07,WNW,287,2.0,-999.0,54,-99.99,,,0.00,weatherlink.com 1.10,2013-08-02 17:26:00,
2013-08-02 13:41:00,80.6,63.0,30.07,WNW,298,2.0,-999.0,55,-99.99,,,0.00,weatherlink.com 1.10,2013-08-02 17:41:00,
2013-08-02 13:57:00,80.7,61.0,30.07,WNW,298,0.0,-999.0,51,-99.99,,,0.00,weatherlink.com 1.10,2013-08-02 17:57:00,
2013-08-02 14:11:00,80.7,60.0,30.07,WNW,284,4.0,-999.0,50,-99.99,,,0.00,weatherlink.com 1.10,2013-08-02 18:11:00,
2013-08-02 14:26:00,80.3,62.0,30.07,West,277,5.0,-999.0,54,-99.99,,,0.00,weatherlink.com 1.10,2013-08-02 18:26:00,
2013-08-02 14:41:00,80.7,61.0,30.07,WNW,296,4.0,-999.0,51,-99.99,,,0.00,weatherlink.com 1.10,2013-08-02 18:41:00,
2013-08-02 14:57:00,80.9,64.0,30.07,WNW,295,4.0,-999.0,56,-99.99,,,0.00,weatherlink.com 1.10,2013-08-02 18:57:00,
2013-08-02 15:11:00,82.0,63.0,30.07,NW,304,3.0,-999.0,52,-99.99,,,0.00,weatherlink.com 1.10,2013-08-02 19:11:00,
2013-08-02 15:26:00,81.9,62.0,30.07,WNW,298,7.0,-999.0,51,-99.99,,,0.00,weatherlink.com 1.10,2013-08-02 19:26:00,
2013-08-02 15:41:00,82.2,62.0,30.07,NW,317,3.0,-999.0,51,-99.99,,,0.00,weatherlink.com 1.10,2013-08-02 19:41:00,
2013-08-02 15:57:00,82.1,62.0,30.07,WNW,290,4.0,-999.0,50,-99.99,,,0.00,weatherlink.com 1.10,2013-08-02 19:57:00,
2013-08-02 16:11:00,81.9,64.0,30.05,WNW,300,4.0,-999.0,54,-99.99,,,0.00,weatherlink.com 1.10,2013-08-02 20:11:00,
2013-08-02 16:26:00,82.4,61.0,30.05,WNW,300,0.0,-999.0,49,-99.99,,,0.00,weatherlink.com 1.10,2013-08-02 20:26:00,
2013-08-02 16:57:00,82.1,61.0,30.04,WNW,300,0.0,-999.0,49,-99.99,,,0.00,weatherlink.com 1.10,2013-08-02 20:57:00,
2013-08-02 17:26:00,81.9,66.0,30.04,WNW,300,0.0,-999.0,58,-99.99,,,0.00,weatherlink.com 1.10,2013-08-02 21:26:00,
2013-08-02 17:41:00,82.3,65.0,30.03,West,270,2.0,-999.0,57,-99.99,,,0.00,weatherlink.com 1.10,2013-08-02 21:41:00,
2013-08-02 17:57:00,82.1,65.0,30.03,West,270,0.0,-999.0,57,-99.99,,,0.00,weatherlink.com 1.10,2013-08-02 21:57:00,
2013-08-02 18:11:00,80.6,64.0,30.02,West,263,3.0,-999.0,57,-99.99,,,0.00,weatherlink.com 1.10,2013-08-02 22:11:00,
2013-08-02 18:26:00,81.1,67.0,30.03,West,263,0.0,-999.0,62,-99.99,,,0.00,weatherlink.com 1.10,2013-08-02 22:26:00,
2013-08-02 18:41:00,81.3,66.0,30.02,SSW,208,3.0,-999.0,61,-99.99,,,0.00,weatherlink.com 1.10,2013-08-02 22:41:00,
2013-08-02 18:57:00,81.0,68.0,30.02,SW,214,0.0,-999.0,64,-99.99,,,0.00,weatherlink.com 1.10,2013-08-02 22:57:00,
2013-08-02 19:11:00,81.4,67.0,30.02,WSW,240,0.0,-999.0,62,-99.99,,,0.00,weatherlink.com 1.10,2013-08-02 23:11:00,
2013-08-02 19:41:00,80.9,68.0,30.02,WSW,242,0.0,-999.0,66,-99.99,,,0.00,weatherlink.com 1.10,2013-08-02 23:41:00,
2013-08-02 19:57:00,80.6,69.0,30.02,WSW,244,0.0,-999.0,67,-99.99,,,0.00,weatherlink.com 1.10,2013-08-02 23:57:00,
2013-08-02 20:11:00,77.0,69.0,30.02,WSW,244,0.0,-999.0,76,-99.99,,,0.00,weatherlink.com 1.10,2013-08-03 00:11:00,
2013-08-02 20:26:00,73.9,68.0,30.02,WSW,244,0.0,-999.0,81,-99.99,,,0.00,weatherlink.com 1.10,2013-08-03 00:26:00,
2013-08-02 20:41:00,72.6,67.0,30.02,WSW,244,0.0,-999.0,83,-99.99,,,0.00,weatherlink.com 1.10,2013-08-03 00:41:00,
2013-08-02 20:57:00,72.4,67.0,30.02,WSW,244,0.0,-999.0,84,-99.99,,,0.00,weatherlink.com 1.10,2013-08-03 00:57:00,
2013-08-02 21:11:00,70.5,67.0,30.02,WSW,244,0.0,-999.0,87,-99.99,,,0.00,weatherlink.com 1.10,2013-08-03 01:11:00,
2013-08-02 21:26:00,69.7,66.0,30.02,WSW,244,0.0,-999.0,88,-99.99,,,0.00,weatherlink.com 1.10,2013-08-03 01:26:00,
2013-08-02 21:41:00,69.1,66.0,30.03,WSW,244,0.0,-999.0,88,-99.99,,,0.00,weatherlink.com 1.10,2013-08-03 01:41:00,
2013-08-02 21:57:00,69.0,65.0,30.03,WSW,244,0.0,-999.0,88,-99.99,,,0.00,weatherlink.com 1.10,2013-08-03 01:57:00,
2013-08-02 22:26:00,67.8,65.0,30.04,WSW,244,0.0,-999.0,91,-99.99,,,0.00,weatherlink.com 1.10,2013-08-03 02:26:00,
2013-08-02 22:41:00,67.8,65.0,30.04,WSW,244,0.0,-999.0,91,-99.99,,,0.00,weatherlink.com 1.10,2013-08-03 02:41:00,
2013-08-02 22:57:00,67.7,65.0,30.04,WSW,244,0.0,-999.0,91,-99.99,,,0.00,weatherlink.com 1.10,2013-08-03 02:57:00,
2013-08-02 23:11:00,67.9,66.0,30.03,WSW,244,0.0,-999.0,92,-99.99,,,0.00,weatherlink.com 1.10,2013-08-03 03:11:00,
2013-08-02 23:26:00,67.8,66.0,30.03,WSW,244,0.0,-999.0,93,-99.99,,,0.00,weatherlink.com 1.10,2013-08-03 03:26:00,
2013-08-02 23:41:00,67.9,66.0,30.02,WSW,244,0.0,-999.0,93,-99.99,,,0.00,weatherlink.com 1.10,2013-08-03 03:41:00,
2013-08-02 23:57:00,68.0,66.0,30.02,WSW,244,0.0,-999.0,93,-99.99,,,0.00,weatherlink.com 1.10,2013-08-03 03:57:00,